Regional Weather Roundup
Issued by NWS Newport/Morehead, NC

Current Version | Previous Version | Graphics & Text | Print | Product List | Glossary Off
Versions: 1 2 3 4 5 6 7 8 9 10 11 12 13 14 15 16 17 18 19 20 21 22 23 24 25 26 27 28 29 30 31 32 33 34 35 36 37 38 39 40 41 42 43 44 45 46 47 48 49 50

000
ASUS42 KMHX 011613
RWRMHX
WEATHER ROUNDUP FOR EASTERN NORTH CAROLINA
NATIONAL WEATHER SERVICE NEWPORT/MOREHEAD CITY NC
1200 PM EDT MON JUN 01 2015

NOTE: "FAIR" INDICATES FEW OR NO CLOUDS BELOW 12,000 FEET
WITH NO SIGNIFICANT WEATHER AND/OR OBSTRUCTIONS TO VISIBILITY

NCZ015>017-031-032-045>047-102-103-011700-
NORTH COAST

CITY           SKY/WX    TMP DP  RH WIND       PRES   REMARKS
EDENTON          N/A     83  69  62 SW6       30.09S
ELIZABETH CITY SUNNY     83  69  62 SW8       30.08F
KITTY HAWK     PTSUNNY   83  67  58 E6        30.09S
MANTEO         MOSUNNY   82  69  65 S12       30.10F

$$

NCZ045>047-081-094-103-104-011700-
CENTRAL COAST

CITY           SKY/WX    TMP DP  RH WIND       PRES   REMARKS
FRISCO         SUNNY     80  66  62 S7        30.12S
SWANQUARTER      N/A     84 N/A N/A S6        30.06S

$$

NCZ095-097-098-100-101-011700-
SOUTHERN COAST

CITY           SKY/WX    TMP DP  RH WIND       PRES   REMARKS
BEAUFORT       SUNNY     80  67  64 SW9       30.10F
CEDAR ISLAND     N/A     81 N/A N/A NE3       30.15S
JACKSONVILLE   SUNNY     84  66  54 E7        30.08F
PINEY ISLAND   MOSUNNY  N/A N/A N/A E8        30.09F
WILMINGTON     MOSUNNY   82  65  56 CALM      30.09F


$$

NCZ011>013-027>030-043-044-078>080-089-090>093-098-011700-
COASTAL PLAIN

CITY           SKY/WX    TMP DP  RH WIND       PRES   REMARKS
AHOSKIE        SUNNY     83  68  60 S3        30.07S
CLINTON        SUNNY     85  68  56 CALM      30.09S
ELIZABETHTOWN  SUNNY     84  64  50 SE5       30.09S
GOLDSBORO      SUNNY     85  67  54 SW6       30.05F
GREENVILLE     MOSUNNY   84  70  61 SW7       30.09F
HAVELOCK       MOSUNNY   85  64  49 CALM      30.10F
KENANSVILLE    SUNNY     83  64  53 S3        30.10S
KINSTON        MOSUNNY   84  66  54 SW3       30.09F
NEW BERN       PTSUNNY   85  66  53 S7        30.10F
RICHLANDS      MOSUNNY   88  64  45 SW6       30.09F
ROCKY MOUNT    MOSUNNY   86  69  56 SW12      30.07F
WASHINGTON     SUNNY     83  68  61 S8        30.08F
WHITEVILLE     SUNNY     85  63  47 E3        30.08F

$$

AMZ130-135-150-152-154-156-158-170-250-252-270-ANZ085-086-088-633-658-670-011700-
MARINE OBSERVATIONS

STATION/POSITION TIME  TEMP    WIND        PRES    WAVE   SWELL
                       AIR SEA DIR/SP/G            HT/PER HT/PER
                 (UTC) (F)     (DEG/KT/KT) (MB)    (FT/S) (FT/S)
CHESAPEAKE LIGHT 1500   71     190/ 17/ 17 1019.2
64 E VA BEACH    1550   74 73  200/  6/  6 1019.3    3/ 9   3/ 9
DUCK             1500   78 53  240/  8/ 11 1018.3
2 E DUCK         1511      62                N/A     3/ 9
OREGON INLET     1500   78 78  180/  7/ 10 1019.6
13E OREGON INLT  1600      77                N/A     3/ 9
HATTERAS CG      1500   80 78  230/  4/  6 1019.6
DIAMOND BUOY     1550   76 80  310/  4/  6 1020.0    4/ 9   3/ 9
CAPE LOOKOUT     1600   78     160/  7/  8 1019.2
BEAUFORT LAB     1500   78 77  200/  7/  9 1018.9
27 SE WRIGHTSVLE 1500      77   CALM  /  2   N/A
5 SE WRIGHTSVLE  NOT AVBL
225 S CAPE HAT   1550   76 78   30/  2/  4 1020.1    5/ 8   5/ 8
41 SE CHARLESTON 1550   78 81   30/  2/  2 1019.4    3/ 9   3/ 9

$$


USA.gov is the U.S. government's official web portal to all federal, state and local government web resources and services.